| time (UTC) | temp C | wind direction | speed KPH | gust KPH | rain 1hr cm | rain 24hr cm | rain mn cm | humidity % | barometer mb |
| 20260507045058 | 14 | 267 | 0.0 | 0.0 | 0.00 | 0.00 | 0.00 | 80 | 1011.4 |
| 20260507044554 | 14 | 267 | 0.0 | 0.0 | 0.00 | 0.00 | 0.00 | 80 | 1011.4 |
| 20260507044049 | 14 | 267 | 0.0 | 0.0 | 0.00 | 0.00 | 0.00 | 79 | 1011.4 |
| 20260507043633 | 14 | 267 | 0.0 | 0.0 | 0.00 | 0.00 | 0.00 | 79 | 1011.4 |
| 20260507043116 | 14 | 267 | 0.0 | 0.0 | 0.00 | 0.00 | 0.00 | 78 | 1011.4 |
| 20260507042609 | 14 | 267 | 0.0 | 0.0 | 0.00 | 0.00 | 0.00 | 78 | 1011.4 |
| 20260507042105 | 14 | 267 | 0.0 | 0.0 | 0.00 | 0.00 | 0.00 | 77 | 1011.4 |
| 20260507041620 | 15 | 267 | 0.0 | 0.0 | 0.00 | 0.00 | 0.00 | 77 | 1011.4 |
| 20260507041054 | 15 | 267 | 0.0 | 0.0 | 0.00 | 0.00 | 0.00 | 77 | 1011.2 |
| 20260507040610 | 15 | 267 | 0.0 | 0.0 | 0.00 | 0.00 | 0.00 | 77 | 1011.2 |
| 20260507040048 | 15 | 267 | 0.0 | 1.6 | 0.00 | 0.00 | 0.00 | 76 | 1011.2 |
| 20260507035607 | 15 | 267 | 0.0 | 1.6 | 0.00 | 0.00 | 0.00 | 76 | 1011.0 |
| 20260507035118 | 15 | 267 | 0.0 | 0.0 | 0.00 | 0.00 | 0.00 | 76 | 1011.0 |
| 20260507034629 | 15 | 267 | 0.0 | 3.2 | 0.00 | 0.00 | 0.00 | 76 | 1011.0 |
| 20260507034144 | 15 | 267 | 0.0 | 3.2 | 0.00 | 0.00 | 0.00 | 76 | 1010.8 |
| 20260507033607 | 15 | 267 | 0.0 | 3.2 | 0.00 | 0.00 | 0.00 | 76 | 1010.8 |
| 20260507033119 | 15 | 254 | 0.0 | 6.4 | 0.00 | 0.00 | 0.00 | 76 | 1010.8 |
| 20260507032559 | 15 | 252 | 1.6 | 6.4 | 0.00 | 0.00 | 0.00 | 76 | 1010.6 |
| 20260507032055 | 15 | 278 | 0.0 | 11.3 | 0.00 | 0.00 | 0.00 | 76 | 1010.6 |
| 20260507031554 | 15 | 273 | 0.0 | 14.5 | 0.00 | 0.00 | 0.00 | 77 | 1010.6 |
| 20260507031109 | 15 | 288 | 1.6 | 14.5 | 0.00 | 0.00 | 0.00 | 76 | 1010.4 |
| 20260507030605 | 15 | 274 | 3.2 | 11.3 | 0.00 | 0.00 | 0.00 | 76 | 1010.4 |
| 20260507030100 | 15 | 229 | 0.0 | 16.1 | 0.00 | 0.00 | 0.00 | 76 | 1010.4 |
| 20260507025552 | 15 | 246 | 4.8 | 16.1 | 0.00 | 0.00 | 0.00 | 75 | 1010.3 |
| 20260507025051 | 16 | 274 | 0.0 | 11.3 | 0.00 | 0.00 | 0.00 | 74 | 1010.3 |
| 20260507024606 | 16 | 292 | 0.0 | 11.3 | 0.00 | 0.00 | 0.00 | 72 | 1010.3 |
| 20260507024059 | 16 | 239 | 0.0 | 11.3 | 0.00 | 0.00 | 0.00 | 70 | 1010.3 |
| 20260507023703 | 16 | 229 | 3.2 | 12.9 | 0.00 | 0.00 | 0.00 | 69 | 1010.3 |
| 20260507023132 | 16 | 196 | 4.8 | 16.1 | 0.00 | 0.00 | 0.00 | 67 | 1010.3 |
| 20260507022625 | 16 | 319 | 3.2 | 16.1 | 0.00 | 0.00 | 0.00 | 66 | 1010.3 |
| 20260507022059 | 16 | 193 | 6.4 | 17.7 | 0.00 | 0.00 | 0.00 | 67 | 1010.3 |
| 20260507021553 | 16 | 259 | 1.6 | 17.7 | 0.00 | 0.00 | 0.00 | 68 | 1010.3 |
| 20260507021052 | 16 | 271 | 4.8 | 24.1 | 0.00 | 0.00 | 0.00 | 70 | 1010.3 |
| 20260507020608 | 16 | 279 | 3.2 | 24.1 | 0.00 | 0.00 | 0.00 | 70 | 1010.3 |
| 20260507020137 | 16 | 273 | 3.2 | 19.3 | 0.00 | 0.00 | 0.00 | 70 | 1010.3 |
| 20260507015608 | 17 | 204 | 4.8 | 19.3 | 0.00 | 0.00 | 0.00 | 67 | 1010.2 |
| 20260507015110 | 17 | 270 | 0.0 | 22.5 | 0.00 | 0.00 | 0.00 | 65 | 1010.2 |
| 20260507014604 | 17 | 272 | 4.8 | 22.5 | 0.00 | 0.00 | 0.00 | 65 | 1010.2 |
| 20260507014103 | 17 | 265 | 3.2 | 17.7 | 0.00 | 0.00 | 0.00 | 67 | 1010.1 |
| 20260507013559 | 17 | 274 | 3.2 | 12.9 | 0.00 | 0.00 | 0.00 | 66 | 1010.1 |
| 20260507013058 | 18 | 268 | 1.6 | 11.3 | 0.00 | 0.00 | 0.00 | 65 | 1010.1 |
| 20260507012554 | 18 | 323 | 4.8 | 11.3 | 0.00 | 0.00 | 0.00 | 63 | 1009.9 |
| 20260507012211 | 18 | 276 | 3.2 | 17.7 | 0.00 | 0.00 | 0.00 | 61 | 1009.9 |
| 20260507011624 | 18 | 250 | 3.2 | 17.7 | 0.00 | 0.00 | 0.00 | 59 | 1009.9 |
| 20260507011059 | 18 | 189 | 1.6 | 8.0 | 0.00 | 0.00 | 0.00 | 59 | 1009.8 |
| 20260507010558 | 18 | 284 | 0.0 | 8.0 | 0.00 | 0.00 | 0.00 | 62 | 1009.8 |
| 20260507010116 | 18 | 270 | 0.0 | 8.0 | 0.00 | 0.00 | 0.00 | 64 | 1009.8 |
| 20260507005608 | 18 | 263 | 1.6 | 9.7 | 0.00 | 0.00 | 0.00 | 64 | 1009.8 |
| 20260507005122 | 18 | 209 | 1.6 | 19.3 | 0.00 | 0.00 | 0.00 | 64 | 1009.8 |
| 20260507004558 | 18 | 276 | 3.2 | 19.3 | 0.00 | 0.00 | 0.00 | 63 | 1009.8 |
| 20260507004057 | 18 | 276 | 3.2 | 17.7 | 0.00 | 0.00 | 0.00 | 64 | 1010.1 |
| 20260507003552 | 18 | 281 | 3.2 | 16.1 | 0.00 | 0.00 | 0.00 | 67 | 1010.1 |
| 20260507003108 | 18 | 263 | 0.0 | 16.1 | 0.00 | 0.00 | 0.00 | 68 | 1010.1 |
| 20260507002603 | 18 | 269 | 3.2 | 20.9 | 0.00 | 0.00 | 0.00 | 66 | 1009.9 |
| 20260507002112 | 18 | 281 | 6.4 | 20.9 | 0.00 | 0.00 | 0.00 | 64 | 1009.9 |
| 20260507001611 | 18 | 194 | 1.6 | 14.5 | 0.00 | 0.00 | 0.00 | 66 | 1009.9 |
| 20260507001055 | 18 | 267 | 3.2 | 17.7 | 0.00 | 0.00 | 0.00 | 65 | 1009.9 |
| 20260507000609 | 18 | 183 | 6.4 | 17.7 | 0.00 | 0.00 | 0.00 | 65 | 1009.9 |
| 20260507000105 | 18 | 313 | 3.2 | 14.5 | 0.00 | 0.00 | 0.00 | 65 | 1009.9 |
| 20260506235559 | 18 | 232 | 3.2 | 17.7 | 0.00 | 0.00 | 0.00 | 64 | 1010.1 |
| 20260506235143 | 19 | 267 | 3.2 | 17.7 | 0.00 | 0.00 | 0.00 | 64 | 1010.1 |
| 20260506234649 | 19 | 214 | 3.2 | 17.7 | 0.00 | 0.00 | 0.00 | 64 | 1010.1 |
| 20260506234105 | 19 | 247 | 3.2 | 17.7 | 0.00 | 0.00 | 0.00 | 63 | 1009.9 |
| 20260506233601 | 20 | 188 | 1.6 | 12.9 | 0.00 | 0.00 | 0.00 | 62 | 1009.9 |
| 20260506233056 | 20 | 211 | 3.2 | 11.3 | 0.00 | 0.00 | 0.00 | 59 | 1009.9 |
| 20260506232627 | 20 | 288 | 3.2 | 14.5 | 0.00 | 0.00 | 0.00 | 58 | 1010.2 |
| 20260506232121 | 20 | 296 | 3.2 | 14.5 | 0.00 | 0.00 | 0.00 | 59 | 1010.2 |
| 20260506231607 | 20 | 282 | 0.0 | 16.1 | 0.00 | 0.00 | 0.00 | 61 | 1010.2 |
| 20260506231102 | 20 | 262 | 6.4 | 16.1 | 0.00 | 0.00 | 0.00 | 58 | 1010.3 |
| 20260506230601 | 20 | 274 | 0.0 | 9.7 | 0.00 | 0.00 | 0.00 | 59 | 1010.3 |
| 20260506230056 | 20 | 200 | 1.6 | 9.7 | 0.00 | 0.00 | 0.00 | 58 | 1010.3 |
| 20260506225552 | 20 | 194 | 1.6 | 6.4 | 0.00 | 0.00 | 0.00 | 58 | 1010.3 |
| 20260506225108 | 20 | 263 | 0.0 | 6.4 | 0.00 | 0.00 | 0.00 | 59 | 1010.3 |
| 20260506224602 | 20 | 185 | 1.6 | 6.4 | 0.00 | 0.00 | 0.00 | 56 | 1010.3 |
| 20260506224058 | 20 | 228 | 0.0 | 9.7 | 0.00 | 0.00 | 0.00 | 59 | 1010.7 |
| 20260506223553 | 20 | 266 | 1.6 | 11.3 | 0.00 | 0.00 | 0.00 | 58 | 1010.7 |
| 20260506223111 | 20 | 246 | 1.6 | 11.3 | 0.00 | 0.00 | 0.00 | 58 | 1010.7 |
| 20260506222606 | 20 | 228 | 1.6 | 6.4 | 0.00 | 0.00 | 0.00 | 56 | 1010.8 |
| 20260506222225 | 20 | 225 | 0.0 | 8.0 | 0.00 | 0.00 | 0.00 | 56 | 1010.8 |
| 20260506221615 | 21 | 234 | 1.6 | 8.0 | 0.00 | 0.00 | 0.00 | 55 | 1010.8 |
| 20260506221053 | 21 | 284 | 3.2 | 8.0 | 0.00 | 0.00 | 0.00 | 54 | 1010.9 |
| 20260506220606 | 20 | 263 | 0.0 | 4.8 | 0.00 | 0.00 | 0.00 | 52 | 1010.9 |
| 20260506220101 | 20 | 271 | 0.0 | 4.8 | 0.00 | 0.00 | 0.00 | 52 | 1010.9 |
| 20260506215558 | 20 | 255 | 0.0 | 11.3 | 0.00 | 0.00 | 0.00 | 53 | 1011.0 |
| 20260506215054 | 20 | 281 | 1.6 | 11.3 | 0.00 | 0.00 | 0.00 | 51 | 1011.0 |
| 20260506214610 | 21 | 259 | 1.6 | 4.8 | 0.00 | 0.00 | 0.00 | 50 | 1011.0 |
| 20260506214105 | 21 | 265 | 1.6 | 6.4 | 0.00 | 0.00 | 0.00 | 48 | 1011.1 |
| 20260506213600 | 21 | 250 | 0.0 | 6.4 | 0.00 | 0.00 | 0.00 | 51 | 1011.1 |
| 20260506213116 | 21 | 254 | 1.6 | 9.7 | 0.00 | 0.00 | 0.00 | 51 | 1011.1 |
| 20260506212631 | 21 | 283 | 1.6 | 9.7 | 0.00 | 0.00 | 0.00 | 54 | 1011.3 |
| 20260506212055 | 21 | 239 | 0.0 | 6.4 | 0.00 | 0.00 | 0.00 | 54 | 1011.3 |
| 20260506211554 | 21 | 182 | 0.0 | 6.4 | 0.00 | 0.00 | 0.00 | 55 | 1011.3 |
| 20260506211052 | 21 | 189 | 0.0 | 6.4 | 0.00 | 0.00 | 0.00 | 54 | 1011.4 |
| 20260506210550 | 21 | 167 | 0.0 | 6.4 | 0.00 | 0.00 | 0.00 | 54 | 1011.4 |
| 20260506210108 | 21 | 287 | 0.0 | 6.4 | 0.00 | 0.00 | 0.00 | 53 | 1011.4 |
| 20260506205557 | 21 | 217 | 0.0 | 6.4 | 0.00 | 0.00 | 0.00 | 53 | 1011.4 |
| 20260506205113 | 20 | 175 | 0.0 | 6.4 | 0.00 | 0.00 | 0.00 | 50 | 1011.4 |
| 20260506204606 | 20 | 180 | 0.0 | 6.4 | 0.00 | 0.00 | 0.00 | 50 | 1011.4 |
| 20260506204102 | 20 | 183 | 0.0 | 8.0 | 0.00 | 0.00 | 0.00 | 52 | 1011.5 |
| 20260506203557 | 20 | 184 | 0.0 | 8.0 | 0.00 | 0.00 | 0.00 | 50 | 1011.5 |
| 20260506203112 | 20 | 169 | 0.0 | 8.0 | 0.00 | 0.00 | 0.00 | 52 | 1011.5 |
| 20260506202620 | 20 | 164 | 0.0 | 6.4 | 0.00 | 0.00 | 0.00 | 50 | 1011.6 |
| 20260506202109 | 20 | 159 | 0.0 | 6.4 | 0.00 | 0.00 | 0.00 | 51 | 1011.6 |
| 20260506201624 | 20 | 170 | 1.6 | 6.4 | 0.00 | 0.00 | 0.00 | 51 | 1011.6 |
| 20260506201058 | 20 | 169 | 0.0 | 9.7 | 0.00 | 0.00 | 0.00 | 52 | 1011.8 |
| 20260506200554 | 20 | 194 | 0.0 | 12.9 | 0.00 | 0.00 | 0.00 | 52 | 1011.8 |
| 20260506200049 | 20 | 178 | 3.2 | 12.9 | 0.00 | 0.00 | 0.00 | 50 | 1011.8 |
| 20260506195607 | 20 | 150 | 0.0 | 11.3 | 0.00 | 0.00 | 0.00 | 50 | 1011.9 |
| 20260506195123 | 21 | 168 | 0.0 | 4.8 | 0.00 | 0.00 | 0.00 | 51 | 1012.0 |
| 20260506194557 | 21 | 168 | 0.0 | 11.3 | 0.00 | 0.00 | 0.00 | 54 | 1012.0 |
| 20260506194051 | 21 | 175 | 3.2 | 11.3 | 0.00 | 0.00 | 0.00 | 51 | 1012.0 |
| 20260506193607 | 22 | 167 | 1.6 | 8.0 | 0.00 | 0.00 | 0.00 | 49 | 1012.0 |
| 20260506193100 | 22 | 163 | 1.6 | 4.8 | 0.00 | 0.00 | 0.00 | 48 | 1011.9 |
| 20260506192717 | 23 | 121 | 0.0 | 6.4 | 0.00 | 0.00 | 0.00 | 48 | 1012.3 |
| 20260506192122 | 22 | 120 | 1.6 | 6.4 | 0.00 | 0.00 | 0.00 | 48 | 1012.3 |
| 20260506191619 | 22 | 63 | 1.6 | 6.4 | 0.00 | 0.00 | 0.00 | 51 | 1012.3 |
| 20260506191055 | 22 | 194 | 1.6 | 11.3 | 0.00 | 0.00 | 0.00 | 53 | 1012.3 |
| 20260506190629 | 22 | 265 | 1.6 | 16.1 | 0.00 | 0.00 | 0.00 | 52 | 1012.3 |
| 20260506190052 | 21 | 77 | 8.0 | 16.1 | 0.00 | 0.00 | 0.00 | 55 | 1012.3 |
| 20260506185603 | 20 | 84 | 0.0 | 1.6 | 0.00 | 0.00 | 0.00 | 58 | 1012.4 |
| 20260506185058 | 20 | 81 | 0.0 | 0.0 | 0.00 | 0.00 | 0.00 | 56 | 1012.4 |
| 20260506184613 | 21 | 80 | 0.0 | 6.4 | 0.00 | 0.00 | 0.00 | 55 | 1012.4 |
| 20260506184123 | 21 | 79 | 0.0 | 6.4 | 0.00 | 0.00 | 0.00 | 54 | 1012.5 |
| 20260506183607 | 22 | 73 | 0.0 | 4.8 | 0.00 | 0.00 | 0.00 | 53 | 1012.5 |
| 20260506183101 | 21 | 74 | 1.6 | 4.8 | 0.00 | 0.00 | 0.00 | 56 | 1012.5 |
| 20260506182554 | 21 | 69 | 0.0 | 0.0 | 0.00 | 0.00 | 0.00 | 55 | 1012.5 |
| 20260506182051 | 21 | 69 | 0.0 | 0.0 | 0.00 | 0.00 | 0.00 | 55 | 1012.5 |
| 20260506181607 | 21 | 65 | 0.0 | 6.4 | 0.00 | 0.00 | 0.00 | 58 | 1012.5 |
| 20260506181122 | 21 | 64 | 1.6 | 8.0 | 0.00 | 0.00 | 0.00 | 58 | 1012.5 |
| 20260506180556 | 21 | 65 | 1.6 | 8.0 | 0.00 | 0.00 | 0.00 | 57 | 1012.5 |
| 20260506180054 | 21 | 65 | 0.0 | 3.2 | 0.00 | 0.00 | 0.00 | 55 | 1012.5 |
| 20260506175632 | 21 | 65 | 0.0 | 6.4 | 0.00 | 0.00 | 0.00 | 54 | 1012.5 |
| 20260506175106 | 22 | 64 | 0.0 | 14.5 | 0.00 | 0.00 | 0.00 | 55 | 1012.5 |
| 20260506174602 | 22 | 71 | 0.0 | 14.5 | 0.00 | 0.00 | 0.00 | 54 | 1012.5 |
| 20260506174059 | 21 | 61 | 1.6 | 9.7 | 0.00 | 0.00 | 0.00 | 56 | 1012.5 |
| 20260506173632 | 21 | 78 | 0.0 | 0.0 | 0.00 | 0.00 | 0.00 | 57 | 1012.5 |
| 20260506173114 | 21 | 78 | 0.0 | 3.2 | 0.00 | 0.00 | 0.00 | 58 | 1012.5 |
| 20260506172624 | 21 | 76 | 1.6 | 8.0 | 0.00 | 0.00 | 0.00 | 56 | 1012.5 |
| 20260506172058 | 21 | 67 | 1.6 | 8.0 | 0.00 | 0.00 | 0.00 | 58 | 1012.5 |
| 20260506171552 | 20 | 65 | 0.0 | 6.4 | 0.00 | 0.00 | 0.00 | 59 | 1012.5 |
| 20260506171047 | 20 | 65 | 0.0 | 1.6 | 0.00 | 0.00 | 0.00 | 60 | 1012.5 |
| 20260506170606 | 20 | 63 | 0.0 | 1.6 | 0.00 | 0.00 | 0.00 | 62 | 1012.5 |
| 20260506170059 | 20 | 63 | 0.0 | 1.6 | 0.00 | 0.00 | 0.00 | 61 | 1012.5 |
| 20260506165554 | 20 | 72 | 0.0 | 4.8 | 0.00 | 0.00 | 0.00 | 63 | 1012.5 |
| 20260506165114 | 19 | 71 | 0.0 | 8.0 | 0.00 | 0.00 | 0.00 | 62 | 1012.5 |
| 20260506164554 | 19 | 76 | 0.0 | 8.0 | 0.00 | 0.00 | 0.00 | 63 | 1012.5 |
| 20260506164051 | 19 | 73 | 1.6 | 8.0 | 0.00 | 0.00 | 0.00 | 64 | 1012.4 |
| 20260506163623 | 19 | 83 | 1.6 | 6.4 | 0.00 | 0.00 | 0.00 | 65 | 1012.4 |
| 20260506163106 | 18 | 83 | 0.0 | 11.3 | 0.00 | 0.00 | 0.00 | 67 | 1012.4 |
| 20260506162602 | 18 | 84 | 1.6 | 11.3 | 0.00 | 0.00 | 0.00 | 68 | 1012.4 |
| 20260506162102 | 18 | 81 | 0.0 | 6.4 | 0.00 | 0.00 | 0.00 | 70 | 1012.4 |
| 20260506161601 | 18 | 81 | 0.0 | 9.7 | 0.00 | 0.00 | 0.00 | 71 | 1012.4 |
| 20260506161055 | 17 | 82 | 3.2 | 9.7 | 0.00 | 0.00 | 0.00 | 73 | 1012.4 |
| 20260506160553 | 17 | 82 | 4.8 | 8.0 | 0.00 | 0.00 | 0.00 | 75 | 1012.4 |
| 20260506160051 | 17 | 82 | 0.0 | 6.4 | 0.00 | 0.00 | 0.00 | 78 | 1012.4 |
| 20260506155607 | 16 | 90 | 0.0 | 1.6 | 0.00 | 0.00 | 0.00 | 80 | 1012.4 |
| 20260506155102 | 16 | 91 | 0.0 | 6.4 | 0.00 | 0.00 | 0.00 | 82 | 1012.4 |
| 20260506154556 | 16 | 92 | 1.6 | 6.4 | 0.00 | 0.00 | 0.00 | 84 | 1012.4 |
| 20260506154130 | 16 | 120 | 0.0 | 6.4 | 0.00 | 0.00 | 0.00 | 86 | 1012.5 |
| 20260506153603 | 16 | 126 | 0.0 | 1.6 | 0.00 | 0.00 | 0.00 | 88 | 1012.5 |
| 20260506153113 | 15 | 128 | 0.0 | 0.0 | 0.00 | 0.00 | 0.00 | 89 | 1012.5 |
| 20260506152609 | 15 | 128 | 0.0 | 1.6 | 0.00 | 0.00 | 0.00 | 90 | 1012.5 |
| 20260506152118 | 15 | 128 | 0.0 | 1.6 | 0.00 | 0.00 | 0.00 | 91 | 1012.5 |
| 20260506151552 | 15 | 128 | 0.0 | 0.0 | 0.00 | 0.00 | 0.00 | 92 | 1012.5 |
| 20260506151107 | 15 | 128 | 0.0 | 1.6 | 0.00 | 0.00 | 0.00 | 92 | 1012.5 |
| 20260506150623 | 14 | 128 | 0.0 | 4.8 | 0.00 | 0.00 | 0.00 | 93 | 1012.5 |
| 20260506150116 | 14 | 128 | 1.6 | 4.8 | 0.00 | 0.00 | 0.00 | 93 | 1012.5 |
| 20260506145609 | 13 | 128 | 0.0 | 3.2 | 0.00 | 0.00 | 0.00 | 93 | 1012.5 |
| 20260506145105 | 13 | 128 | 0.0 | 6.4 | 0.00 | 0.00 | 0.00 | 93 | 1012.5 |
| 20260506144601 | 13 | 128 | 1.6 | 6.4 | 0.00 | 0.00 | 0.00 | 93 | 1012.5 |
| 20260506144056 | 13 | 256 | 0.0 | 0.0 | 0.00 | 0.00 | 0.00 | 93 | 1012.3 |
| 20260506143555 | 13 | 255 | 0.0 | 1.6 | 0.00 | 0.00 | 0.00 | 93 | 1012.3 |
| 20260506143108 | 12 | 255 | 0.0 | 1.6 | 0.00 | 0.00 | 0.00 | 93 | 1012.3 |
| 20260506142714 | 12 | 256 | 0.0 | 0.0 | 0.00 | 0.00 | 0.00 | 93 | 1012.2 |
| 20260506142053 | 12 | 256 | 0.0 | 0.0 | 0.00 | 0.00 | 0.00 | 93 | 1012.2 |
| 20260506141609 | 12 | 256 | 0.0 | 0.0 | 0.00 | 0.00 | 0.00 | 93 | 1012.2 |
| 20260506141125 | 12 | 256 | 0.0 | 0.0 | 0.00 | 0.00 | 0.00 | 93 | 1012.2 |
| 20260506140619 | 12 | 256 | 0.0 | 0.0 | 0.00 | 0.00 | 0.00 | 93 | 1012.2 |
| 20260506140051 | 11 | 256 | 0.0 | 0.0 | 0.00 | 0.00 | 0.00 | 92 | 1012.1 |
| 20260506135604 | 11 | 256 | 0.0 | 0.0 | 0.00 | 0.00 | 0.00 | 92 | 1012.0 |
| 20260506135101 | 11 | 256 | 0.0 | 0.0 | 0.00 | 0.00 | 0.00 | 92 | 1012.0 |
| 20260506134600 | 11 | 256 | 0.0 | 0.0 | 0.00 | 0.00 | 0.00 | 92 | 1012.0 |
| 20260506134055 | 11 | 256 | 0.0 | 0.0 | 0.00 | 0.00 | 0.00 | 92 | 1011.9 |
| 20260506133551 | 11 | 256 | 0.0 | 0.0 | 0.00 | 0.00 | 0.00 | 92 | 1011.9 |
| 20260506133106 | 11 | 256 | 0.0 | 0.0 | 0.00 | 0.00 | 0.00 | 92 | 1011.9 |
| 20260506132601 | 11 | 256 | 0.0 | 0.0 | 0.00 | 0.00 | 0.00 | 92 | 1011.9 |
| 20260506132100 | 11 | 256 | 0.0 | 0.0 | 0.00 | 0.00 | 0.00 | 91 | 1011.9 |
| 20260506131558 | 11 | 256 | 0.0 | 0.0 | 0.00 | 0.00 | 0.00 | 92 | 1011.9 |
| 20260506131053 | 11 | 256 | 0.0 | 0.0 | 0.00 | 0.00 | 0.00 | 91 | 1011.7 |
| 20260506130625 | 11 | 256 | 0.0 | 0.0 | 0.00 | 0.00 | 0.00 | 91 | 1011.7 |
| 20260506130114 | 11 | 256 | 0.0 | 0.0 | 0.00 | 0.00 | 0.00 | 91 | 1011.7 |
| 20260506125635 | 11 | 256 | 0.0 | 0.0 | 0.00 | 0.00 | 0.00 | 91 | 1011.5 |
| 20260506125108 | 11 | 256 | 0.0 | 0.0 | 0.00 | 0.00 | 0.00 | 91 | 1011.5 |
| 20260506124553 | 11 | 256 | 0.0 | 0.0 | 0.00 | 0.00 | 0.00 | 91 | 1011.5 |
| 20260506124107 | 11 | 256 | 0.0 | 0.0 | 0.00 | 0.00 | 0.00 | 91 | 1011.4 |
| 20260506123623 | 11 | 256 | 0.0 | 0.0 | 0.00 | 0.00 | 0.00 | 91 | 1011.4 |
| 20260506123056 | 11 | 256 | 0.0 | 0.0 | 0.00 | 0.00 | 0.00 | 91 | 1011.4 |
| 20260506122610 | 11 | 256 | 0.0 | 0.0 | 0.00 | 0.00 | 0.00 | 91 | 1011.4 |
| 20260506122105 | 11 | 256 | 0.0 | 0.0 | 0.00 | 0.00 | 0.00 | 91 | 1011.4 |
| 20260506121604 | 11 | 256 | 0.0 | 0.0 | 0.00 | 0.00 | 0.00 | 91 | 1011.4 |
| 20260506121058 | 11 | 256 | 0.0 | 0.0 | 0.00 | 0.00 | 0.00 | 91 | 1011.4 |
| 20260506120554 | 11 | 256 | 0.0 | 0.0 | 0.00 | 0.00 | 0.00 | 91 | 1011.4 |
| 20260506120109 | 11 | 256 | 0.0 | 0.0 | 0.00 | 0.00 | 0.00 | 91 | 1011.4 |
| 20260506115604 | 11 | 256 | 0.0 | 0.0 | 0.00 | 0.00 | 0.00 | 90 | 1011.3 |
| 20260506115122 | 11 | 256 | 0.0 | 0.0 | 0.00 | 0.00 | 0.00 | 90 | 1011.3 |
| 20260506114630 | 11 | 256 | 0.0 | 0.0 | 0.00 | 0.00 | 0.00 | 91 | 1011.3 |
| 20260506114122 | 11 | 256 | 0.0 | 0.0 | 0.00 | 0.00 | 0.00 | 91 | 1011.2 |
| 20260506113613 | 11 | 256 | 0.0 | 0.0 | 0.00 | 0.00 | 0.00 | 90 | 1011.2 |
| 20260506113110 | 11 | 256 | 0.0 | 0.0 | 0.00 | 0.00 | 0.00 | 90 | 1011.2 |
| 20260506112605 | 11 | 256 | 0.0 | 0.0 | 0.00 | 0.00 | 0.00 | 90 | 1011.3 |
| 20260506112121 | 11 | 256 | 0.0 | 0.0 | 0.00 | 0.00 | 0.00 | 90 | 1011.3 |
| 20260506111557 | 11 | 256 | 0.0 | 0.0 | 0.00 | 0.00 | 0.00 | 89 | 1011.3 |
| 20260506111053 | 11 | 256 | 0.0 | 0.0 | 0.00 | 0.00 | 0.00 | 89 | 1011.2 |
| 20260506110609 | 11 | 256 | 0.0 | 0.0 | 0.00 | 0.00 | 0.00 | 89 | 1011.2 |
| 20260506110104 | 11 | 256 | 0.0 | 0.0 | 0.00 | 0.00 | 0.00 | 89 | 1011.2 |
| 20260506105554 | 11 | 256 | 0.0 | 0.0 | 0.00 | 0.00 | 0.00 | 89 | 1011.3 |
| 20260506105110 | 11 | 256 | 0.0 | 0.0 | 0.00 | 0.00 | 0.00 | 89 | 1011.3 |
| 20260506104626 | 11 | 256 | 0.0 | 0.0 | 0.00 | 0.00 | 0.00 | 89 | 1011.3 |
| 20260506104123 | 11 | 256 | 0.0 | 0.0 | 0.00 | 0.00 | 0.00 | 89 | 1011.3 |
| 20260506103607 | 11 | 256 | 0.0 | 0.0 | 0.00 | 0.00 | 0.00 | 89 | 1011.3 |
| 20260506103114 | 11 | 256 | 0.0 | 0.0 | 0.00 | 0.00 | 0.00 | 89 | 1011.3 |
| 20260506102608 | 11 | 256 | 0.0 | 0.0 | 0.00 | 0.00 | 0.00 | 89 | 1011.2 |
| 20260506102104 | 11 | 256 | 0.0 | 0.0 | 0.00 | 0.00 | 0.00 | 89 | 1011.2 |
| 20260506101559 | 11 | 256 | 0.0 | 0.0 | 0.00 | 0.00 | 0.00 | 89 | 1011.2 |
| 20260506101055 | 11 | 256 | 0.0 | 0.0 | 0.00 | 0.00 | 0.00 | 89 | 1011.2 |
| 20260506100552 | 11 | 256 | 0.0 | 0.0 | 0.00 | 0.00 | 0.00 | 88 | 1011.2 |
| 20260506100106 | 11 | 256 | 0.0 | 0.0 | 0.00 | 0.00 | 0.00 | 89 | 1011.2 |
| 20260506095609 | 11 | 256 | 0.0 | 0.0 | 0.00 | 0.00 | 0.00 | 89 | 1011.2 |
| 20260506095100 | 11 | 256 | 0.0 | 0.0 | 0.00 | 0.00 | 0.00 | 89 | 1011.2 |
| 20260506094658 | 11 | 256 | 0.0 | 0.0 | 0.00 | 0.00 | 0.00 | 89 | 1011.2 |
| 20260506094117 | 11 | 256 | 0.0 | 0.0 | 0.00 | 0.00 | 0.00 | 89 | 1011.4 |
| 20260506093553 | 11 | 256 | 0.0 | 0.0 | 0.00 | 0.00 | 0.00 | 89 | 1011.4 |
| 20260506093109 | 11 | 256 | 0.0 | 0.0 | 0.00 | 0.00 | 0.00 | 89 | 1011.4 |
| 20260506092605 | 11 | 256 | 0.0 | 0.0 | 0.00 | 0.00 | 0.00 | 89 | 1011.4 |
| 20260506092119 | 12 | 256 | 0.0 | 0.0 | 0.00 | 0.00 | 0.00 | 89 | 1011.4 |
| 20260506091554 | 12 | 256 | 0.0 | 0.0 | 0.00 | 0.00 | 0.00 | 88 | 1011.4 |
| 20260506091108 | 12 | 256 | 0.0 | 0.0 | 0.00 | 0.00 | 0.00 | 88 | 1011.4 |
| 20260506090623 | 12 | 256 | 0.0 | 0.0 | 0.00 | 0.00 | 0.00 | 88 | 1011.4 |
| 20260506090118 | 12 | 256 | 0.0 | 0.0 | 0.00 | 0.00 | 0.00 | 88 | 1011.4 |
| 20260506085627 | 12 | 256 | 0.0 | 0.0 | 0.00 | 0.00 | 0.00 | 88 | 1011.5 |
| 20260506085122 | 12 | 256 | 0.0 | 0.0 | 0.00 | 0.00 | 0.00 | 88 | 1011.5 |
| 20260506084555 | 12 | 256 | 0.0 | 0.0 | 0.00 | 0.00 | 0.00 | 88 | 1011.5 |
| 20260506084131 | 12 | 256 | 0.0 | 0.0 | 0.00 | 0.00 | 0.00 | 88 | 1011.6 |
| 20260506083608 | 12 | 256 | 0.0 | 0.0 | 0.00 | 0.00 | 0.00 | 88 | 1011.6 |
| 20260506083123 | 12 | 256 | 0.0 | 0.0 | 0.00 | 0.00 | 0.00 | 88 | 1011.6 |
| 20260506082556 | 12 | 256 | 0.0 | 0.0 | 0.00 | 0.00 | 0.00 | 88 | 1011.6 |
| 20260506082051 | 12 | 256 | 0.0 | 0.0 | 0.00 | 0.00 | 0.00 | 88 | 1011.6 |
| 20260506081606 | 12 | 256 | 0.0 | 0.0 | 0.00 | 0.00 | 0.00 | 88 | 1011.6 |
| 20260506081102 | 12 | 256 | 0.0 | 0.0 | 0.00 | 0.03 | 0.00 | 87 | 1011.8 |
| 20260506080558 | 12 | 256 | 0.0 | 0.0 | 0.00 | 0.03 | 0.00 | 87 | 1011.8 |
| 20260506080113 | 12 | 256 | 0.0 | 0.0 | 0.00 | 0.03 | 0.00 | 87 | 1011.8 |
| 20260506073059 | 12 | 256 | 0.0 | 0.0 | 0.00 | 0.03 | 0.00 | 87 | 1011.7 |
| 20260506072557 | 12 | 256 | 0.0 | 0.0 | 0.00 | 0.03 | 0.00 | 87 | 1011.5 |
| 20260506072056 | 12 | 256 | 0.0 | 0.0 | 0.00 | 0.03 | 0.00 | 87 | 1011.5 |
| 20260506071552 | 12 | 256 | 0.0 | 0.0 | 0.00 | 0.03 | 0.00 | 87 | 1011.5 |
| 20260506071108 | 13 | 256 | 0.0 | 0.0 | 0.00 | 0.03 | 0.00 | 87 | 1011.4 |
| 20260506070602 | 12 | 256 | 0.0 | 0.0 | 0.00 | 0.03 | 0.00 | 86 | 1011.4 |
| 20260506070226 | 13 | 256 | 0.0 | 0.0 | 0.00 | 0.03 | 0.00 | 86 | 1011.4 |
| 20260506062101 | 13 | 256 | 0.0 | 0.0 | 0.00 | 0.03 | 0.00 | 84 | 1011.3 |
| 20260506061600 | 13 | 256 | 0.0 | 0.0 | 0.00 | 0.03 | 0.00 | 84 | 1011.3 |
| 20260506061100 | 13 | 256 | 0.0 | 0.0 | 0.00 | 0.03 | 0.00 | 83 | 1011.2 |
| 20260506060556 | 13 | 256 | 0.0 | 0.0 | 0.00 | 0.03 | 0.00 | 83 | 1011.2 |
| 20260506051052 | 13 | 256 | 0.0 | 0.0 | 0.00 | 0.03 | 0.00 | 82 | 1010.7 |
| 20260506050605 | 13 | 256 | 0.0 | 0.0 | 0.00 | 0.03 | 0.00 | 81 | 1010.7 |
| 20260506050117 | 13 | 256 | 0.0 | 0.0 | 0.00 | 0.03 | 0.00 | 80 | 1010.7 |